English version Home page |
Updated on January 9, 2003 |
プロフィール
|
軌道要素Epoch 2002 Feb. 15.0 TT = JDT 2452320.5 T 2002 Feb. 21.78383 TT MPC q 1.4663545 (2000.0) P Q z -0.0003207 Peri. 9.02651 -0.43021814 +0.02774319 +/-0.0000226 Node 244.58048 -0.87800073 -0.24518640 e 1.0004702 Incl. 92.54454 -0.20982628 +0.96907891 From 577 observations 2002 Mar. 12-June 9, mean residual 0".55.
|
星図
|
光度変化m1 = 5.5 + 5 logΔ + 20.0 log r [ ,170] ( 〜2002年 8月10日) m1 = 16.2 + 5 logΔ - 5.0 log r [170,280] (2002年 8月10日〜2002年11月28日) m1 = 7.5 + 5 logΔ + 10.0 log r [280, ] (2002年11月28日〜 )
|
軌道要素は Dr. Brian G. Marsden の計算によるもので、
M.P.E.C. 2002-L42
に掲載されたものです。
|